| time (UTC) | temp C | wind direction | speed KPH | gust KPH | rain 1hr cm | rain 24hr cm | rain mn cm | humidity % | barometer mb |
| 20260506015213 | 20 | 171 | 11.3 | 14.5 | 0.00 | 0.00 | 0.00 | 67 | 1022.0 |
| 20260506014709 | 20 | 193 | 17.7 | 20.9 | 0.00 | 0.00 | 0.00 | 67 | 1021.8 |
| 20260506014205 | 21 | 170 | 12.9 | 20.9 | 0.00 | 0.00 | 0.00 | 66 | 1021.7 |
| 20260506013703 | 21 | 165 | 11.3 | 14.5 | 0.00 | 0.00 | 0.00 | 66 | 1021.7 |
| 20260506013200 | 21 | 172 | 11.3 | 14.5 | 0.00 | 0.00 | 0.00 | 66 | 1021.4 |
| 20260506012656 | 21 | 168 | 12.9 | 16.1 | 0.00 | 0.00 | 0.00 | 66 | 1021.6 |
| 20260506012153 | 21 | 176 | 12.9 | 17.7 | 0.00 | 0.00 | 0.00 | 65 | 1021.5 |
| 20260506011651 | 21 | 166 | 11.3 | 16.1 | 0.00 | 0.00 | 0.00 | 65 | 1021.2 |
| 20260506011146 | 21 | 151 | 11.3 | 16.1 | 0.00 | 0.00 | 0.00 | 65 | 1021.2 |
| 20260506010645 | 21 | 159 | 8.0 | 12.9 | 0.00 | 0.00 | 0.00 | 65 | 1021.1 |
| 20260506010142 | 21 | 170 | 11.3 | 16.1 | 0.00 | 0.00 | 0.00 | 64 | 1021.1 |
| 20260506005639 | 21 | 169 | 16.1 | 20.9 | 0.00 | 0.00 | 0.00 | 64 | 1021.2 |
| 20260506005136 | 22 | 167 | 14.5 | 22.5 | 0.00 | 0.00 | 0.00 | 64 | 1021.2 |
| 20260506004632 | 22 | 179 | 14.5 | 17.7 | 0.00 | 0.00 | 0.00 | 64 | 1021.0 |
| 20260506004130 | 22 | 126 | 14.5 | 27.4 | 0.00 | 0.00 | 0.00 | 63 | 1021.1 |
| 20260506003626 | 22 | 138 | 8.0 | 12.9 | 0.00 | 0.00 | 0.00 | 63 | 1021.0 |
| 20260506003122 | 22 | 169 | 17.7 | 22.5 | 0.00 | 0.00 | 0.00 | 63 | 1020.9 |
| 20260506002618 | 22 | 140 | 6.4 | 20.9 | 0.00 | 0.00 | 0.00 | 62 | 1020.7 |
| 20260506002114 | 22 | 183 | 12.9 | 17.7 | 0.00 | 0.00 | 0.00 | 62 | 1020.6 |
| 20260506001610 | 23 | 146 | 9.7 | 22.5 | 0.00 | 0.00 | 0.00 | 62 | 1020.6 |
| 20260506001107 | 23 | 162 | 20.9 | 25.7 | 0.00 | 0.00 | 0.00 | 61 | 1020.4 |
| 20260506000605 | 23 | 172 | 14.5 | 20.9 | 0.00 | 0.00 | 0.00 | 61 | 1020.4 |
| 20260505235600 | 23 | 146 | 12.9 | 22.5 | 0.00 | 0.00 | 0.00 | 60 | 1020.4 |
| 20260505235057 | 23 | 125 | 12.9 | 17.7 | 0.00 | 0.00 | 0.00 | 60 | 1020.5 |
| 20260505234554 | 24 | 162 | 11.3 | 17.7 | 0.00 | 0.00 | 0.00 | 60 | 1020.3 |
| 20260505234050 | 24 | 167 | 8.0 | 17.7 | 0.00 | 0.00 | 0.00 | 59 | 1020.3 |
| 20260505233548 | 25 | 176 | 8.0 | 11.3 | 0.00 | 0.00 | 0.00 | 58 | 1020.0 |
| 20260505233045 | 25 | 121 | 16.1 | 20.9 | 0.00 | 0.00 | 0.00 | 57 | 1020.2 |
| 20260505232543 | 25 | 138 | 16.1 | 24.1 | 0.00 | 0.00 | 0.00 | 56 | 1020.2 |
| 20260505232040 | 25 | 156 | 12.9 | 16.1 | 0.00 | 0.00 | 0.00 | 55 | 1020.3 |
| 20260505231537 | 25 | 173 | 12.9 | 22.5 | 0.00 | 0.00 | 0.00 | 54 | 1020.4 |
| 20260505231036 | 25 | 166 | 11.3 | 16.1 | 0.00 | 0.00 | 0.00 | 53 | 1020.3 |
| 20260505230533 | 26 | 151 | 12.9 | 16.1 | 0.00 | 0.00 | 0.00 | 52 | 1020.2 |
| 20260505230029 | 26 | 173 | 20.9 | 24.1 | 0.00 | 0.00 | 0.00 | 51 | 1020.1 |
| 20260505225526 | 26 | 173 | 11.3 | 14.5 | 0.00 | 0.00 | 0.00 | 49 | 1020.4 |
| 20260505225022 | 26 | 176 | 9.7 | 17.7 | 0.00 | 0.00 | 0.00 | 49 | 1020.4 |
| 20260505224519 | 27 | 184 | 12.9 | 16.1 | 0.00 | 0.00 | 0.00 | 47 | 1020.0 |
| 20260505224016 | 27 | 176 | 9.7 | 11.3 | 0.00 | 0.00 | 0.00 | 38 | 1020.4 |
| 20260505223513 | 27 | 197 | 6.4 | 9.7 | 0.00 | 0.00 | 0.00 | 36 | 1020.3 |
| 20260505223010 | 27 | 167 | 6.4 | 17.7 | 0.00 | 0.00 | 0.00 | 37 | 1020.2 |
| 20260505222506 | 27 | 196 | 12.9 | 16.1 | 0.00 | 0.00 | 0.00 | 37 | 1020.3 |
| 20260505222001 | 27 | 184 | 9.7 | 11.3 | 0.00 | 0.00 | 0.00 | 37 | 1020.3 |
| 20260505221459 | 27 | 209 | 4.8 | 9.7 | 0.00 | 0.00 | 0.00 | 37 | 1020.1 |
| 20260505220956 | 27 | 177 | 8.0 | 14.5 | 0.00 | 0.00 | 0.00 | 36 | 1020.1 |
| 20260505220453 | 27 | 121 | 6.4 | 14.5 | 0.00 | 0.00 | 0.00 | 37 | 1020.0 |
| 20260505215951 | 27 | 155 | 14.5 | 22.5 | 0.00 | 0.00 | 0.00 | 37 | 1020.0 |
| 20260505215449 | 28 | 175 | 12.9 | 14.5 | 0.00 | 0.00 | 0.00 | 36 | 1020.2 |
| 20260505214946 | 28 | 193 | 14.5 | 20.9 | 0.00 | 0.00 | 0.00 | 35 | 1020.1 |
| 20260505214444 | 28 | 224 | 6.4 | 12.9 | 0.00 | 0.00 | 0.00 | 35 | 1020.4 |
| 20260505213941 | 28 | 201 | 8.0 | 9.7 | 0.00 | 0.00 | 0.00 | 36 | 1020.3 |
| 20260505213439 | 28 | 193 | 8.0 | 12.9 | 0.00 | 0.00 | 0.00 | 36 | 1020.2 |
| 20260505212935 | 28 | 180 | 4.8 | 11.3 | 0.00 | 0.00 | 0.00 | 37 | 1020.3 |
| 20260505212432 | 28 | 198 | 11.3 | 14.5 | 0.00 | 0.00 | 0.00 | 37 | 1020.3 |
| 20260505211928 | 27 | 228 | 14.5 | 14.5 | 0.00 | 0.00 | 0.00 | 37 | 1020.5 |
| 20260505211426 | 28 | 248 | 6.4 | 8.0 | 0.00 | 0.00 | 0.00 | 36 | 1020.3 |
| 20260505210922 | 28 | 226 | 9.7 | 11.3 | 0.00 | 0.00 | 0.00 | 36 | 1020.4 |
| 20260505210419 | 28 | 261 | 8.0 | 11.3 | 0.00 | 0.00 | 0.00 | 36 | 1020.4 |
| 20260505205916 | 28 | 170 | 11.3 | 16.1 | 0.00 | 0.00 | 0.00 | 37 | 1020.4 |
| 20260505205414 | 28 | 159 | 11.3 | 16.1 | 0.00 | 0.00 | 0.00 | 36 | 1020.2 |
| 20260505204911 | 28 | 160 | 16.1 | 17.7 | 0.00 | 0.00 | 0.00 | 36 | 1020.4 |
| 20260505204408 | 27 | 190 | 8.0 | 20.9 | 0.00 | 0.00 | 0.00 | 37 | 1020.5 |
| 20260505203906 | 27 | 142 | 12.9 | 16.1 | 0.00 | 0.00 | 0.00 | 36 | 1020.7 |
| 20260505203402 | 27 | 156 | 8.0 | 14.5 | 0.00 | 0.00 | 0.00 | 37 | 1020.4 |
| 20260505202858 | 27 | 178 | 11.3 | 14.5 | 0.00 | 0.00 | 0.00 | 37 | 1020.4 |
| 20260505202355 | 28 | 168 | 11.3 | 16.1 | 0.00 | 0.00 | 0.00 | 36 | 1020.6 |
| 20260505201851 | 27 | 112 | 11.3 | 17.7 | 0.00 | 0.00 | 0.00 | 36 | 1020.7 |
| 20260505201349 | 28 | 166 | 14.5 | 22.5 | 0.00 | 0.00 | 0.00 | 36 | 1021.0 |
| 20260505200847 | 28 | 146 | 6.4 | 9.7 | 0.00 | 0.00 | 0.00 | 35 | 1020.8 |
| 20260505200344 | 28 | 197 | 11.3 | 14.5 | 0.00 | 0.00 | 0.00 | 35 | 1021.0 |
| 20260505195839 | 28 | 282 | 6.4 | 9.7 | 0.00 | 0.00 | 0.00 | 36 | 1021.1 |
| 20260505195336 | 27 | 114 | 1.6 | 3.2 | 0.00 | 0.00 | 0.00 | 35 | 1020.9 |
| 20260505194833 | 27 | 254 | 4.8 | 8.0 | 0.00 | 0.00 | 0.00 | 37 | 1021.4 |
| 20260505194331 | 28 | 232 | 14.5 | 22.5 | 0.00 | 0.00 | 0.00 | 35 | 1021.4 |
| 20260505193826 | 27 | 193 | 12.9 | 14.5 | 0.00 | 0.00 | 0.00 | 36 | 1021.4 |
| 20260505193324 | 27 | 181 | 9.7 | 12.9 | 0.00 | 0.00 | 0.00 | 37 | 1021.6 |
| 20260505192821 | 27 | 225 | 6.4 | 12.9 | 0.00 | 0.00 | 0.00 | 37 | 1021.7 |
| 20260505192320 | 27 | 149 | 8.0 | 12.9 | 0.00 | 0.00 | 0.00 | 38 | 1021.8 |
| 20260505191817 | 27 | 169 | 11.3 | 16.1 | 0.00 | 0.00 | 0.00 | 37 | 1021.6 |
| 20260505191315 | 27 | 174 | 11.3 | 17.7 | 0.00 | 0.00 | 0.00 | 37 | 1022.0 |
| 20260505190812 | 26 | 164 | 4.8 | 8.0 | 0.00 | 0.00 | 0.00 | 39 | 1021.9 |
| 20260505190307 | 26 | 228 | 4.8 | 11.3 | 0.00 | 0.00 | 0.00 | 40 | 1022.1 |
| 20260505185804 | 27 | 122 | 1.6 | 3.2 | 0.00 | 0.00 | 0.00 | 39 | 1022.0 |
| 20260505185300 | 26 | 115 | 8.0 | 12.9 | 0.00 | 0.00 | 0.00 | 41 | 1022.2 |
| 20260505184756 | 27 | 201 | 6.4 | 8.0 | 0.00 | 0.00 | 0.00 | 38 | 1022.1 |
| 20260505184253 | 27 | 154 | 8.0 | 16.1 | 0.00 | 0.00 | 0.00 | 38 | 1022.5 |
| 20260505183750 | 27 | 101 | 3.2 | 8.0 | 0.00 | 0.00 | 0.00 | 39 | 1022.3 |
| 20260505183248 | 27 | 137 | 6.4 | 12.9 | 0.00 | 0.00 | 0.00 | 39 | 1022.3 |
| 20260505182744 | 27 | 96 | 4.8 | 11.3 | 0.00 | 0.00 | 0.00 | 39 | 1022.4 |
| 20260505182240 | 27 | 192 | 12.9 | 20.9 | 0.00 | 0.00 | 0.00 | 40 | 1022.7 |
| 20260505181737 | 27 | 229 | 8.0 | 11.3 | 0.00 | 0.00 | 0.00 | 37 | 1022.4 |
| 20260505181235 | 27 | 189 | 6.4 | 9.7 | 0.00 | 0.00 | 0.00 | 39 | 1022.7 |
| 20260505180731 | 27 | 172 | 8.0 | 16.1 | 0.00 | 0.00 | 0.00 | 39 | 1022.5 |
| 20260505180228 | 26 | 193 | 9.7 | 11.3 | 0.00 | 0.00 | 0.00 | 40 | 1022.6 |
| 20260505175724 | 26 | 356 | 1.6 | 8.0 | 0.00 | 0.00 | 0.00 | 42 | 1022.6 |
| 20260505175221 | 26 | 165 | 8.0 | 9.7 | 0.00 | 0.00 | 0.00 | 41 | 1022.8 |
| 20260505174717 | 27 | 186 | 14.5 | 16.1 | 0.00 | 0.00 | 0.00 | 41 | 1022.8 |
| 20260505174214 | 27 | 159 | 12.9 | 16.1 | 0.00 | 0.00 | 0.00 | 41 | 1022.8 |
| 20260505173710 | 26 | 189 | 14.5 | 22.5 | 0.00 | 0.00 | 0.00 | 41 | 1022.8 |
| 20260505173207 | 26 | 172 | 12.9 | 20.9 | 0.00 | 0.00 | 0.00 | 41 | 1022.8 |
| 20260505172704 | 26 | 184 | 17.7 | 24.1 | 0.00 | 0.00 | 0.00 | 43 | 1022.9 |
| 20260505172201 | 27 | 183 | 8.0 | 11.3 | 0.00 | 0.00 | 0.00 | 43 | 1022.6 |
| 20260505171701 | 26 | 218 | 6.4 | 8.0 | 0.00 | 0.00 | 0.00 | 44 | 1022.7 |
| 20260505171158 | 26 | 181 | 14.5 | 17.7 | 0.00 | 0.00 | 0.00 | 43 | 1022.7 |
| 20260505170655 | 26 | 174 | 6.4 | 9.7 | 0.00 | 0.00 | 0.00 | 44 | 1022.8 |
| 20260505170152 | 25 | 154 | 1.6 | 11.3 | 0.00 | 0.00 | 0.00 | 43 | 1022.8 |
| 20260505165652 | 25 | 227 | 9.7 | 12.9 | 0.00 | 0.00 | 0.00 | 48 | 1023.1 |
| 20260505165148 | 25 | 177 | 1.6 | 9.7 | 0.00 | 0.00 | 0.00 | 46 | 1023.1 |
| 20260505164644 | 26 | 232 | 3.2 | 11.3 | 0.00 | 0.00 | 0.00 | 45 | 1023.0 |
| 20260505164141 | 25 | 189 | 12.9 | 17.7 | 0.00 | 0.00 | 0.00 | 43 | 1023.1 |
| 20260505163639 | 25 | 149 | 8.0 | 20.9 | 0.00 | 0.00 | 0.00 | 50 | 1023.2 |
| 20260505163137 | 25 | 188 | 3.2 | 8.0 | 0.00 | 0.00 | 0.00 | 47 | 1023.2 |
| 20260505162634 | 25 | 186 | 9.7 | 16.1 | 0.00 | 0.00 | 0.00 | 50 | 1023.4 |
| 20260505162132 | 25 | 189 | 16.1 | 17.7 | 0.00 | 0.00 | 0.00 | 51 | 1023.3 |
| 20260505161629 | 25 | 139 | 4.8 | 11.3 | 0.00 | 0.00 | 0.00 | 52 | 1023.2 |
| 20260505161126 | 25 | 153 | 4.8 | 14.5 | 0.00 | 0.00 | 0.00 | 51 | 1023.2 |
| 20260505160624 | 25 | 190 | 3.2 | 9.7 | 0.00 | 0.00 | 0.00 | 52 | 1023.3 |
| 20260505160121 | 25 | 199 | 8.0 | 16.1 | 0.00 | 0.00 | 0.00 | 52 | 1023.4 |
| 20260505153101 | 24 | 269 | 8.0 | 12.9 | 0.00 | 0.00 | 0.00 | 57 | 1023.9 |
| 20260505152557 | 24 | 195 | 8.0 | 11.3 | 0.00 | 0.00 | 0.00 | 57 | 1023.8 |
| 20260505152053 | 24 | 224 | 3.2 | 9.7 | 0.00 | 0.00 | 0.00 | 58 | 1023.9 |
| 20260505151548 | 24 | 252 | 8.0 | 11.3 | 0.00 | 0.00 | 0.00 | 58 | 1023.8 |
| 20260505151046 | 23 | 226 | 8.0 | 11.3 | 0.00 | 0.00 | 0.00 | 58 | 1024.0 |
| 20260505150542 | 24 | 228 | 6.4 | 12.9 | 0.00 | 0.00 | 0.00 | 58 | 1023.6 |
| 20260505140508 | 22 | 165 | 4.8 | 9.7 | 0.00 | 0.00 | 0.00 | 62 | 1023.5 |
| 20260505124921 | 19 | 178 | 8.0 | 12.9 | 0.00 | 0.00 | 0.00 | 75 | 1023.3 |
| 20260505124418 | 18 | 184 | 6.4 | 14.5 | 0.00 | 0.00 | 0.00 | 76 | 1023.3 |
| 20260505123914 | 18 | 210 | 8.0 | 12.9 | 0.00 | 0.00 | 0.00 | 77 | 1023.3 |
| 20260505123411 | 18 | 171 | 6.4 | 8.0 | 0.00 | 0.00 | 0.00 | 79 | 1023.1 |
| 20260505122906 | 17 | 186 | 4.8 | 4.8 | 0.00 | 0.00 | 0.00 | 82 | 1023.2 |
| 20260505122404 | 17 | 197 | 3.2 | 4.8 | 0.00 | 0.00 | 0.00 | 84 | 1023.4 |
| 20260505121901 | 17 | 219 | 6.4 | 9.7 | 0.00 | 0.00 | 0.00 | 86 | 1023.4 |
| 20260505121358 | 16 | 198 | 4.8 | 8.0 | 0.00 | 0.00 | 0.00 | 89 | 1023.3 |
| 20260505120853 | 16 | 167 | 1.6 | 3.2 | 0.00 | 0.00 | 0.00 | 91 | 1023.3 |
| 20260505120350 | 16 | 177 | 1.6 | 1.6 | 0.00 | 0.00 | 0.00 | 92 | 1023.1 |
| 20260505115848 | 15 | 177 | 0.0 | 0.0 | 0.00 | 0.00 | 0.00 | 94 | 1023.3 |
| 20260505115346 | 15 | 177 | 1.6 | 1.6 | 0.00 | 0.00 | 0.00 | 94 | 1023.2 |
| 20260505114843 | 15 | 177 | 0.0 | 0.0 | 0.00 | 0.00 | 0.00 | 96 | 1023.1 |
| 20260505114340 | 15 | 177 | 0.0 | 0.0 | 0.00 | 0.00 | 0.00 | 96 | 1023.1 |
| 20260505113836 | 14 | 177 | 0.0 | 0.0 | 0.00 | 0.00 | 0.00 | 97 | 1023.0 |
| 20260505113333 | 13 | 177 | 0.0 | 0.0 | 0.00 | 0.00 | 0.00 | 97 | 1023.1 |
| 20260505112829 | 12 | 177 | 0.0 | 1.6 | 0.00 | 0.00 | 0.00 | 96 | 1022.8 |
| 20260505112326 | 12 | 177 | 0.0 | 0.0 | 0.00 | 0.00 | 0.00 | 97 | 1023.0 |
| 20260505111822 | 11 | 177 | 0.0 | 0.0 | 0.00 | 0.00 | 0.00 | 97 | 1022.8 |
| 20260505111318 | 11 | 177 | 0.0 | 1.6 | 0.00 | 0.00 | 0.00 | 97 | 1022.6 |
| 20260505110814 | 11 | 177 | 0.0 | 0.0 | 0.00 | 0.00 | 0.00 | 97 | 1022.8 |
| 20260505110311 | 11 | 177 | 0.0 | 0.0 | 0.00 | 0.00 | 0.00 | 97 | 1022.5 |
| 20260505101746 | 11 | 179 | 0.0 | 0.0 | 0.00 | 0.00 | 0.00 | 96 | 1022.5 |
| 20260505101241 | 11 | 179 | 0.0 | 0.0 | 0.00 | 0.00 | 0.00 | 96 | 1022.4 |
| 20260505100738 | 11 | 179 | 0.0 | 1.6 | 0.00 | 0.00 | 0.00 | 96 | 1022.6 |
| 20260505100235 | 11 | 179 | 0.0 | 0.0 | 0.00 | 0.00 | 0.00 | 96 | 1022.5 |
| 20260505095730 | 11 | 179 | 0.0 | 0.0 | 0.00 | 0.00 | 0.00 | 96 | 1022.5 |
| 20260505095228 | 11 | 179 | 0.0 | 0.0 | 0.00 | 0.00 | 0.00 | 95 | 1022.4 |
| 20260505094723 | 11 | 179 | 0.0 | 0.0 | 0.00 | 0.00 | 0.00 | 95 | 1022.4 |
| 20260505094220 | 11 | 179 | 0.0 | 0.0 | 0.00 | 0.00 | 0.00 | 95 | 1022.4 |
| 20260505093716 | 11 | 179 | 0.0 | 0.0 | 0.00 | 0.00 | 0.00 | 95 | 1022.4 |
| 20260505093214 | 11 | 179 | 0.0 | 0.0 | 0.00 | 0.00 | 0.00 | 95 | 1022.2 |
| 20260505092710 | 11 | 179 | 0.0 | 0.0 | 0.00 | 0.00 | 0.00 | 95 | 1022.3 |
| 20260505092209 | 11 | 179 | 0.0 | 0.0 | 0.00 | 0.00 | 0.00 | 95 | 1022.4 |
| 20260505091706 | 11 | 179 | 0.0 | 0.0 | 0.00 | 0.00 | 0.00 | 95 | 1022.1 |
| 20260505091204 | 11 | 179 | 0.0 | 0.0 | 0.00 | 0.00 | 0.00 | 94 | 1022.1 |
| 20260505090701 | 11 | 179 | 0.0 | 0.0 | 0.00 | 0.00 | 0.00 | 94 | 1022.2 |
| 20260505090159 | 11 | 179 | 0.0 | 0.0 | 0.00 | 0.00 | 0.00 | 94 | 1022.1 |
| 20260505085656 | 11 | 179 | 0.0 | 0.0 | 0.00 | 0.00 | 0.00 | 94 | 1022.3 |
| 20260505085155 | 11 | 179 | 0.0 | 1.6 | 0.00 | 0.00 | 0.00 | 94 | 1022.0 |
| 20260505084652 | 11 | 179 | 0.0 | 1.6 | 0.00 | 0.00 | 0.00 | 94 | 1022.3 |
| 20260505084151 | 12 | 179 | 1.6 | 1.6 | 0.00 | 0.00 | 0.00 | 93 | 1022.1 |
| 20260505083648 | 12 | 179 | 0.0 | 0.0 | 0.00 | 0.00 | 0.00 | 93 | 1022.3 |
| 20260505083144 | 12 | 179 | 0.0 | 0.0 | 0.00 | 0.00 | 0.00 | 93 | 1022.2 |
| 20260505082640 | 12 | 179 | 0.0 | 0.0 | 0.00 | 0.00 | 0.00 | 93 | 1022.0 |
| 20260505082137 | 12 | 179 | 0.0 | 0.0 | 0.00 | 0.00 | 0.00 | 92 | 1022.1 |
| 20260505081633 | 12 | 179 | 0.0 | 0.0 | 0.00 | 0.00 | 0.00 | 92 | 1022.2 |
| 20260505081131 | 12 | 179 | 0.0 | 0.0 | 0.00 | 0.00 | 0.00 | 92 | 1022.0 |
| 20260505080627 | 12 | 179 | 0.0 | 0.0 | 0.00 | 0.00 | 0.00 | 92 | 1021.9 |
| 20260505080123 | 12 | 179 | 0.0 | 0.0 | 0.00 | 0.00 | 0.00 | 91 | 1021.8 |
| 20260505075620 | 12 | 179 | 0.0 | 0.0 | 0.00 | 0.00 | 0.00 | 91 | 1021.9 |
| 20260505075116 | 12 | 179 | 0.0 | 0.0 | 0.00 | 0.00 | 0.00 | 90 | 1021.9 |
| 20260505074613 | 12 | 179 | 1.6 | 1.6 | 0.00 | 0.00 | 0.00 | 90 | 1022.1 |
| 20260505074110 | 12 | 179 | 0.0 | 0.0 | 0.00 | 0.00 | 0.00 | 89 | 1022.0 |
| 20260505073608 | 12 | 179 | 0.0 | 0.0 | 0.00 | 0.00 | 0.00 | 89 | 1021.9 |
| 20260505073106 | 12 | 179 | 0.0 | 0.0 | 0.00 | 0.00 | 0.00 | 88 | 1022.0 |
| 20260505072607 | 12 | 179 | 0.0 | 0.0 | 0.00 | 0.00 | 0.00 | 88 | 1022.1 |
| 20260505072103 | 12 | 179 | 0.0 | 0.0 | 0.00 | 0.00 | 0.00 | 87 | 1021.8 |
| 20260505071559 | 13 | 179 | 0.0 | 0.0 | 0.00 | 0.00 | 0.00 | 87 | 1022.3 |
| 20260505071057 | 13 | 179 | 0.0 | 1.6 | 0.00 | 0.00 | 0.00 | 86 | 1021.8 |
| 20260505070554 | 13 | 179 | 0.0 | 1.6 | 0.00 | 0.00 | 0.00 | 86 | 1022.0 |
| 20260505070050 | 13 | 180 | 0.0 | 1.6 | 0.00 | 0.00 | 0.00 | 86 | 1022.2 |
| 20260505065546 | 13 | 180 | 0.0 | 1.6 | 0.00 | 0.00 | 0.00 | 86 | 1021.9 |
| 20260505065043 | 13 | 180 | 1.6 | 3.2 | 0.00 | 0.00 | 0.00 | 86 | 1022.2 |
| 20260505064540 | 13 | 179 | 1.6 | 1.6 | 0.00 | 0.00 | 0.00 | 86 | 1022.0 |
| 20260505064038 | 14 | 179 | 0.0 | 1.6 | 0.00 | 0.00 | 0.00 | 85 | 1022.1 |
| 20260505063535 | 14 | 180 | 0.0 | 1.6 | 0.00 | 0.00 | 0.00 | 85 | 1022.1 |
| 20260505063031 | 14 | 180 | 0.0 | 1.6 | 0.00 | 0.00 | 0.00 | 85 | 1022.3 |
| 20260505062528 | 13 | 176 | 1.6 | 1.6 | 0.00 | 0.00 | 0.00 | 86 | 1022.2 |
| 20260505062025 | 13 | 165 | 1.6 | 1.6 | 0.00 | 0.00 | 0.00 | 85 | 1022.2 |
| 20260505061523 | 13 | 165 | 1.6 | 1.6 | 0.00 | 0.00 | 0.00 | 84 | 1022.4 |
| 20260505061020 | 13 | 166 | 0.0 | 0.0 | 0.00 | 0.00 | 0.00 | 83 | 1022.4 |
| 20260505060518 | 14 | 166 | 0.0 | 0.0 | 0.00 | 0.00 | 0.00 | 82 | 1022.6 |
| 20260505060014 | 15 | 166 | 0.0 | 0.0 | 0.00 | 0.00 | 0.00 | 81 | 1022.4 |
| 20260505055509 | 15 | 166 | 0.0 | 0.0 | 0.00 | 0.00 | 0.00 | 79 | 1022.5 |
| 20260505055006 | 15 | 167 | 0.0 | 1.6 | 0.00 | 0.00 | 0.00 | 79 | 1022.6 |
| 20260505054504 | 15 | 176 | 1.6 | 3.2 | 0.00 | 0.00 | 0.00 | 78 | 1022.7 |
| 20260505054001 | 15 | 169 | 3.2 | 3.2 | 0.00 | 0.00 | 0.00 | 78 | 1022.8 |
| 20260505053458 | 15 | 175 | 1.6 | 1.6 | 0.00 | 0.00 | 0.00 | 77 | 1022.8 |
| 20260505052955 | 16 | 190 | 1.6 | 3.2 | 0.00 | 0.00 | 0.00 | 76 | 1022.8 |
| 20260505052452 | 16 | 184 | 1.6 | 3.2 | 0.00 | 0.00 | 0.00 | 76 | 1022.6 |
| 20260505051949 | 16 | 181 | 3.2 | 3.2 | 0.00 | 0.00 | 0.00 | 75 | 1022.8 |
| 20260505051446 | 16 | 190 | 4.8 | 8.0 | 0.00 | 0.00 | 0.00 | 74 | 1022.8 |
| 20260505050944 | 16 | 217 | 6.4 | 8.0 | 0.00 | 0.00 | 0.00 | 74 | 1022.9 |
| 20260505050442 | 16 | 202 | 3.2 | 8.0 | 0.00 | 0.00 | 0.00 | 73 | 1022.9 |
| 20260505041410 | 17 | 178 | 4.8 | 9.7 | 0.00 | 0.00 | 0.00 | 70 | 1023.1 |
| 20260505040907 | 17 | 171 | 6.4 | 8.0 | 0.00 | 0.00 | 0.00 | 70 | 1023.1 |
| 20260505040405 | 17 | 175 | 8.0 | 11.3 | 0.00 | 0.00 | 0.00 | 69 | 1022.9 |
| 20260505035901 | 17 | 168 | 6.4 | 9.7 | 0.00 | 0.00 | 0.00 | 70 | 1022.9 |
| 20260505035357 | 17 | 184 | 6.4 | 8.0 | 0.00 | 0.00 | 0.00 | 70 | 1023.0 |
| 20260505034855 | 17 | 166 | 4.8 | 9.7 | 0.00 | 0.00 | 0.00 | 69 | 1022.9 |
| 20260505034351 | 17 | 175 | 11.3 | 12.9 | 0.00 | 0.00 | 0.00 | 68 | 1023.0 |
| 20260505033848 | 17 | 162 | 8.0 | 9.7 | 0.00 | 0.00 | 0.00 | 68 | 1022.9 |
| 20260505033345 | 17 | 184 | 8.0 | 11.3 | 0.00 | 0.00 | 0.00 | 68 | 1023.0 |
| 20260505032843 | 17 | 195 | 8.0 | 12.9 | 0.00 | 0.00 | 0.00 | 67 | 1023.0 |
| 20260505032339 | 17 | 184 | 9.7 | 12.9 | 0.00 | 0.00 | 0.00 | 67 | 1023.1 |
| 20260505031836 | 17 | 164 | 8.0 | 9.7 | 0.00 | 0.00 | 0.00 | 66 | 1023.0 |
| 20260505031333 | 18 | 176 | 8.0 | 9.7 | 0.00 | 0.00 | 0.00 | 66 | 1023.0 |
| 20260505030830 | 18 | 178 | 8.0 | 11.3 | 0.00 | 0.00 | 0.00 | 66 | 1022.9 |
| 20260505030326 | 18 | 174 | 6.4 | 9.7 | 0.00 | 0.00 | 0.00 | 65 | 1022.9 |
| 20260505025822 | 18 | 163 | 6.4 | 9.7 | 0.00 | 0.00 | 0.00 | 65 | 1022.8 |
| 20260505025320 | 18 | 187 | 8.0 | 12.9 | 0.00 | 0.00 | 0.00 | 65 | 1022.9 |
| 20260505024818 | 18 | 162 | 9.7 | 12.9 | 0.00 | 0.00 | 0.00 | 64 | 1023.2 |
| 20260505024315 | 18 | 176 | 9.7 | 11.3 | 0.00 | 0.00 | 0.00 | 64 | 1023.0 |
| 20260505023812 | 18 | 168 | 8.0 | 12.9 | 0.00 | 0.00 | 0.00 | 63 | 1023.0 |
| 20260505023309 | 18 | 168 | 9.7 | 11.3 | 0.00 | 0.00 | 0.00 | 63 | 1023.0 |
| 20260505022806 | 18 | 167 | 9.7 | 11.3 | 0.00 | 0.00 | 0.00 | 62 | 1022.7 |
| 20260505022304 | 18 | 185 | 8.0 | 11.3 | 0.00 | 0.00 | 0.00 | 61 | 1022.6 |
| 20260505021800 | 18 | 194 | 6.4 | 9.7 | 0.00 | 0.00 | 0.00 | 61 | 1022.6 |
| 20260505021257 | 18 | 158 | 8.0 | 11.3 | 0.00 | 0.00 | 0.00 | 60 | 1022.6 |
| 20260505020753 | 19 | 178 | 11.3 | 12.9 | 0.00 | 0.00 | 0.00 | 59 | 1022.7 |
| 20260505020248 | 19 | 171 | 11.3 | 12.9 | 0.00 | 0.00 | 0.00 | 58 | 1022.6 |
| 20260505015746 | 19 | 182 | 9.7 | 16.1 | 0.00 | 0.00 | 0.00 | 57 | 1022.7 |